Meath Environmental Platform

Observations for Trim Market St

Time AQI Temp °C Hum % Pres Pa CO μg/m³ H₂S μg/m³ NO μg/m³ NO₂ μg/m³ O₃ μg/m³ SO₂ μg/m³ PM1 μg/m³ PM2.5 μg/m³ PM10 μg/m³
Tuesday 14 July 2026
17:25 1 28.9 29 66,068 0 23.6 0 10.76 48.58 0 2.14 6.07 6.68
17:24 1 29 29 66,060 0 20.76 0 8.87 49.47 0 2.85 7.72 8.4
17:23 1 29.2 28 66,084 0 19.12 0 7.35 44.82 0 2.14 5.55 6.65
17:13 1 31 26 66,175 0 11.23 0 6.95 41.76 0 2.14 5.13 5.64
17:12 1 31.1 26 66,182 0 7.71 0 5.95 43.8 0 2.85 7.34 7.52
17:10 1 31.5 25 66,231 0 4.45 0 4.8 43.95 0 2.14 6.26 6.89
17:09 1 31.7 25 66,221 0 2.5 0 0.78 43.92 0 2.14 6.83 7.51
17:08 1 31.9 25 66,234 0 0 0 1.84 35.88 0 1.43 5.73 6.31
17:07 1 32.1 25 66,250 0 1.72 0 1.71 47.45 0 2.85 7.4 9.32
17:06 1 32.2 24 66,266 0 0 0 0.22 43.09 0 3.56 7.41 7.52
17:04 1 32.4 24 66,290 0 0 0 0 39.98 0 2.14 6.31 8.42
17:02 1 32.6 24 66,313 0 0 0 0 39.68 0 2.85 6.86 7.52
16:57 1 33 24 66,327 0 0 0 0 35.1 0 2.85 6.86 7.55
16:52 1 33.2 24 66,325 0 0 0 0 38.85 0 0.71 5.75 6.33
16:50 1 33.3 24 66,331 0 0 0 0 40.32 0 2.14 6.3 6.94
16:48 1 33.4 25 66,359 0 0 0 0 47.8 0 2.85 6.84 7.52
16:47 1 33.5 25 66,366 0 0 0 0 37.97 0 3.56 6.85 7.53
16:43 1 33.6 25 66,394 0 0 0 0 35.69 0 2.14 7.4 7.52
16:42 1 33.7 25 66,376 0 0 0 0.38 37.55 0 4.28 7.95 8.42
16:41 1 33.7 25 66,386 0 0 0 0 37.4 0 3.56 7.4 8.42